TimeCST,TemperatureF,Dew PointF,Humidity,Sea Level PressureIn,VisibilityMPH,Wind Direction,Wind SpeedMPH,Gust SpeedMPH,PrecipitationIn,Events,Conditions,WindDirDegrees,DateUTC
12:55 AM,58.6,57.6,96,30.03,7.0,NNE,2.3,-,N/A,Fog,Shallow Fog,30,2012-12-09 06:55:00
1:19 AM,59.0,57.2,94,30.01,5.0,NE,2.3,-,N/A,,Mostly Cloudy,50,2012-12-09 07:19:00
1:28 AM,59.0,57.2,94,30.01,1.2,NNE,2.3,-,N/A,,Mostly Cloudy,20,2012-12-09 07:28:00
1:35 AM,59.0,57.2,94,30.01,0.8,NNE,2.3,-,N/A,,Mist,30,2012-12-09 07:35:00
1:38 AM,59.0,57.2,94,30.01,0.5,North,2.3,-,N/A,Fog,Fog,10,2012-12-09 07:38:00
1:55 AM,59.0,57.9,96,30.03,0.5,North,2.3,-,N/A,Fog,Fog,10,2012-12-09 07:55:00
2:06 AM,59.0,59.0,100,30.01,0.8,NNE,2.3,-,N/A,,Mist,30,2012-12-09 08:06:00
2:21 AM,59.0,59.0,100,30.01,0.5,NE,2.3,-,N/A,Fog,Fog,40,2012-12-09 08:21:00
2:38 AM,59.0,59.0,100,30.01,0.2,NE,2.3,-,N/A,Fog,Fog,40,2012-12-09 08:38:00
2:56 AM,60.1,59.0,96,30.03,0.2,Calm,Calm,-,N/A,Fog,Fog,0,2012-12-09 08:56:00
3:44 AM,60.8,60.8,100,30.01,0.1,NNE,2.3,-,N/A,Fog,Fog,30,2012-12-09 09:44:00
3:59 AM,61.9,61.3,98,30.03,0.1,NE,2.3,-,N/A,Fog,Fog,40,2012-12-09 09:59:00
4:59 AM,64.4,63.9,98,30.04,0.1,ENE,3.5,-,N/A,Fog,Fog,60,2012-12-09 10:59:00
5:32 AM,64.4,64.4,100,30.04,0.5,Calm,Calm,-,N/A,Fog,Fog,0,2012-12-09 11:32:00
5:43 AM,64.4,64.4,100,30.05,0.5,East,3.5,-,N/A,Fog,Fog,80,2012-12-09 11:43:00
5:55 AM,64.9,64.4,98,30.05,0.5,East,5.8,-,N/A,Fog,Fog,90,2012-12-09 11:55:00
6:04 AM,64.4,64.4,100,30.05,0.5,East,5.8,-,N/A,Fog,Fog,90,2012-12-09 12:04:00
6:10 AM,64.4,64.4,100,30.05,0.8,East,3.5,-,N/A,,Mist,90,2012-12-09 12:10:00
6:16 AM,64.4,64.4,100,30.05,0.8,ESE,5.8,-,N/A,,Mist,110,2012-12-09 12:16:00
6:31 AM,64.4,64.4,100,30.06,0.5,ESE,6.9,-,N/A,Fog,Fog,110,2012-12-09 12:31:00
6:38 AM,64.4,64.4,100,30.06,0.2,ESE,6.9,-,N/A,Fog,Fog,110,2012-12-09 12:38:00
6:55 AM,64.8,64.2,98,30.06,0.2,East,5.8,-,N/A,Fog,Fog,100,2012-12-09 12:55:00
7:55 AM,64.9,64.4,98,29.94,0.2,ESE,6.9,-,N/A,Fog,Fog,110,2012-12-09 13:55:00
8:26 AM,64.4,64.4,100,30.08,0.8,ESE,4.6,-,N/A,,Overcast,110,2012-12-09 14:26:00
8:42 AM,66.2,64.4,94,30.08,1.5,ESE,4.6,-,N/A,,Overcast,110,2012-12-09 14:42:00
8:55 AM,65.7,65.3,99,30.09,3.0,ESE,4.6,-,N/A,,Overcast,110,2012-12-09 14:55:00
9:05 AM,66.2,66.2,100,30.09,5.0,East,5.8,-,N/A,,Mostly Cloudy,90,2012-12-09 15:05:00
9:42 AM,66.2,66.2,100,30.09,10.0,East,4.6,-,N/A,,Overcast,100,2012-12-09 15:42:00
9:55 AM,66.4,65.8,98,30.09,10.0,East,3.5,-,N/A,,Mostly Cloudy,80,2012-12-09 15:55:00
10:13 AM,66.2,66.2,100,30.09,10.0,ESE,5.8,-,N/A,,Scattered Clouds,110,2012-12-09 16:13:00
10:55 AM,70.2,67.8,92,30.09,10.0,SE,6.9,-,N/A,,Scattered Clouds,130,2012-12-09 16:55:00
11:55 AM,74.1,64.6,72,30.06,10.0,SE,10.4,-,N/A,,Scattered Clouds,130,2012-12-09 17:55:00
12:55 PM,74.1,63.9,70,30.04,10.0,South,8.1,-,N/A,,Scattered Clouds,170,2012-12-09 18:55:00
1:55 PM,73.8,63.0,69,30.04,10.0,South,6.9,-,N/A,,Mostly Cloudy,190,2012-12-09 19:55:00
2:55 PM,73.0,62.4,69,30.03,10.0,SSE,9.2,-,N/A,,Mostly Cloudy,160,2012-12-09 20:55:00
3:55 PM,72.3,62.4,71,30.03,10.0,SSE,6.9,-,N/A,,Mostly Cloudy,160,2012-12-09 21:55:00
4:55 PM,69.8,63.5,80,30.03,10.0,SSE,5.8,-,N/A,,Mostly Cloudy,160,2012-12-09 22:55:00
5:55 PM,68.7,63.9,84,30.03,10.0,SSE,5.8,-,N/A,,Mostly Cloudy,150,2012-12-09 23:55:00
6:55 PM,67.3,63.7,88,30.01,10.0,SSE,6.9,-,N/A,,Mostly Cloudy,150,2012-12-10 00:55:00
7:55 PM,68.0,64.8,89,30.01,10.0,SSE,5.8,-,N/A,,Mostly Cloudy,160,2012-12-10 01:55:00
8:13 PM,69.8,64.4,83,30.01,10.0,SSE,4.6,-,N/A,,Mostly Cloudy,160,2012-12-10 02:13:00
8:28 PM,69.8,64.4,83,30.01,10.0,SSE,6.9,-,N/A,,Mostly Cloudy,160,2012-12-10 02:28:00
8:55 PM,68.7,65.1,88,30.01,10.0,SSE,8.1,-,N/A,,Mostly Cloudy,160,2012-12-10 02:55:00
9:55 PM,69.4,65.8,88,30.01,10.0,South,10.4,-,N/A,,Mostly Cloudy,170,2012-12-10 03:55:00
10:55 PM,69.8,66.2,88,29.98,10.0,South,10.4,-,N/A,,Scattered Clouds,170,2012-12-10 04:55:00
11:56 PM,69.4,63.9,82,29.96,10.0,SSE,9.2,-,N/A,,Scattered Clouds,160,2012-12-10 05:56:00